This is the latest recevied weather packets stored in our database for station/object EA2RCU-15. If no packets are shown the sender has not sent any weather packets the latest 10 day(s).
| Time | Temp. | Humidity | Pressure | Rain* | Wind** | Luminosity | Snow |
|---|---|---|---|---|---|---|---|
| 1777497604 | 15.56° C | 81% | 995 hPa | 21.08 mm | - | - | - |
| 1777497304 | 15.56° C | 79% | 995 hPa | 17.02 mm | - | - | - |
| 1777497005 | 15.56° C | 77% | 995 hPa | 16 mm | - | - | - |
| 1777496704 | 15.56° C | 77% | 995 hPa | 12.95 mm | - | - | - |
| 1777496405 | 16.11° C | 76% | 995 hPa | 8.89 mm | - | - | - |
| 1777496105 | 16.11° C | 71% | 995 hPa | 7.11 mm | - | - | - |
| 1777495805 | 16.67° C | 70% | 995 hPa | 5.08 mm | - | - | - |
| 1777495505 | 16.11° C | 72% | 995 hPa | 4.06 mm | - | - | - |
| 1777495205 | 16.67° C | 81% | 994 hPa | 2.03 mm | - | - | - |
| 1777494904 | 16.67° C | 80% | 994 hPa | 0 mm | - | - | - |
| 1777494604 | 16.67° C | 80% | 994 hPa | 0 mm | - | - | - |
| 1777494304 | 16.67° C | 80% | 993 hPa | 0 mm | - | - | - |
| 1777494005 | 16.67° C | 79% | 993 hPa | 0 mm | - | - | - |
| 1777493705 | 16.67° C | 80% | 993 hPa | 1.02 mm | - | - | - |
| 1777493404 | 16.67° C | 80% | 993 hPa | 3.05 mm | - | - | - |
| 1777493104 | 16.67° C | 81% | 993 hPa | 7.11 mm | - | - | - |
| 1777492804 | 16.11° C | 81% | 993 hPa | 8.89 mm | - | - | - |
| 1777492504 | 16.11° C | 81% | 993 hPa | 8.89 mm | - | - | - |
| 1777492205 | 16.11° C | 80% | 993 hPa | 8.89 mm | - | - | - |
| 1777491904 | 16.67° C | 76% | 993 hPa | 8.89 mm | - | - | - |
| 1777491605 | 16.67° C | 74% | 992 hPa | 8.89 mm | - | - | - |
| 1777491304 | 17.22° C | 72% | 992 hPa | 8.89 mm | - | - | - |
| 1777491004 | 17.22° C | 71% | 992 hPa | 8.89 mm | - | - | - |
| 1777490704 | 17.22° C | 71% | 992 hPa | 8.89 mm | - | - | - |
| 1777490404 | 17.22° C | 69% | 992 hPa | 8.89 mm | - | - | - |
* Rain latest hour (hover to see other rain measurements)
** Current wind speed in m/s (hover to see current wind gust speed)